This demonstration page uses our WeatherBlox Daily Observations layout. Learn more.

38.89511, -77.03637

Hourly Observations for April 14, 2015

Temp ( °F °C ) Dew Point ( °F °C ) Humidity (%) Winds ( mph kmh ) Pressure ( in mb ) Visibility ( mi km ) Precip ( " mm )
12:52 am 00:52 Partly Cloudy 64 18 52 11 64 64 S 9 15 30.15 1021 10 16.09344 0 0
1:52 am 01:52 Mostly Cloudy 64 18 54 12 68 68 S 9 15 30.12 1020 10 16.09344 0 0
2:52 am 02:52 Mostly Cloudy 64 18 54 12 68 68 S 10 17 30.09 1019 10 16.09344 0 0
3:52 am 03:52 Mostly Cloudy 64 18 55 13 73 73 S 8 13 30.12 1020 10 16.09344 0 0
4:52 am 04:52 Cloudy 64 18 55 13 73 73 S 8 13 30.12 1020 10 16.09344 0 0
5:52 am 05:52 Cloudy with Light Rain 63 17 57 14 83 83 SSW 7 11 30.12 1020 5 8.04672 0.03 0.762
6:52 am 06:52 Cloudy with Light Rain 63 17 57 14 83 83 S 3 6 30.15 1021 6 9.656064 0.1 2.54
7:14 am 07:14 Cloudy with Light Rain 63 17 57 14 83 83 S 3 6 30.15 1021 3 4.828032 0 0
7:52 am 07:52 Cloudy with Light Rain 63 17 59 15 88 88 S 6 9 30.15 1021 4 6.437376 0.09 2.286
8:52 am 08:52 Cloudy with Light Rain 63 17 59 15 88 88 SSW 7 11 30.15 1021 7 11.265408 0.01 0.254
9:18 am 09:18 Cloudy with Light Rain 63 17 59 15 88 88 S 7 11 30.15 1021 7 11.265408 0 0
9:23 am 09:23 Cloudy with Light Rain 63 17 59 15 88 88 S 8 13 30.15 1021 7 11.265408 0.01 0.254
9:52 am 09:52 Cloudy with Light Rain 64 18 61 16 88 88 NNW 3 6 30.15 1021 6 9.656064 0.03 0.762
10:04 am 10:04 Cloudy with Light Rain 64 18 61 16 88 88 Calm 30.15 1021 5 8.04672 0 0
10:24 am 10:24 Cloudy with Light Rain 64 18 61 16 88 88 Calm 30.15 1021 8 12.874752 0 0
10:52 am 10:52 Cloudy with Light Rain 64 18 61 16 88 88 Calm 30.15 1021 7 11.265408 0.02 0.508
11:04 am 11:04 Cloudy with Light Rain 64 18 61 16 88 88 Calm 30.15 1021 7 11.265408 0 0
11:28 am 11:28 Cloudy 66 19 61 16 83 83 Calm 30.15 1021 9 14.484096 0 0
11:52 am 11:52 Cloudy with Light Rain 66 19 61 16 83 83 Calm 30.15 1021 8 12.874752 0.001 0.001
12:18 pm 12:18 Cloudy with Light Rain 66 19 61 16 83 83 NE 7 11 30.15 1021 7 11.265408 0 0
12:52 pm 12:52 Cloudy with Light Rain 66 19 63 17 88 88 NNE 15 24 30.12 1020 4 6.437376 0.03 0.762
1:05 pm 13:05 Cloudy with Light Rain 64 18 57 14 78 78 NNE 18 30 30.15 1021 5 8.04672 0.001 0.001
1:39 pm 13:39 Cloudy with Light Rain 63 17 57 14 83 83 NNE 12 19 30.15 1021 2.5 4.02336 0.03 0.762
1:52 pm 13:52 Cloudy with Light Rain 63 17 57 14 83 83 NE 15 24 30.15 1021 2 3.218688 0.04 1.016
1:58 pm 13:58 Cloudy with Light Rain 63 17 57 14 83 83 NNE 14 22 30.15 1021 2 3.218688 0 0
2:09 pm 14:09 Cloudy with Light Rain 63 17 57 14 83 83 NNE 16 26 30.15 1021 3 4.828032 0.03 0.762
2:52 pm 14:52 Cloudy with Rain 61 16 55 13 83 83 N 14 22 30.15 1021 3 4.828032 0.09 2.286
3:52 pm 15:52 Cloudy with Light Rain 57 14 52 11 82 82 NE 18 30 30.12 1020 4 6.437376 0.12 3.048
4:09 pm 16:09 Cloudy with Light Rain 55 13 50 10 82 82 NNE 10 17 30.12 1020 6 9.656064 0.01 0.254
4:52 pm 16:52 Cloudy with Light Rain 55 13 48 9 77 77 NE 12 19 30.12 1020 7 11.265408 0.04 1.016
5:52 pm 17:52 Cloudy with Light Rain 55 13 50 10 82 82 NNE 10 17 30.12 1020 10 16.09344 0.03 0.762
6:52 pm 18:52 Cloudy with Light Rain 55 13 46 8 72 72 NNE 8 13 30.12 1020 10 16.09344 0.001 0.001
7:52 pm 19:52 Cloudy 55 13 43 6 63 63 NNE 7 11 30.12 1020 10 16.09344 0.001 0.001
8:52 pm 20:52 Cloudy with Light Rain 55 13 45 7 67 67 NE 8 13 30.15 1021 10 16.09344 0.01 0.254
9:52 pm 21:52 Cloudy with Light Rain 55 13 45 7 67 67 Calm 30.15 1021 10 16.09344 0.001 0.001
10:52 pm 22:52 Cloudy 55 13 48 9 77 77 N 6 9 30.15 1021 10 16.09344 0.001 0.001
11:52 pm 23:52 Cloudy 57 14 45 7 63 63 N 6 9 30.15 1021 10 16.09344 0.001 0.001

Powered by AerisWeather